Regional Weather Roundup
Issued by NWS

Home | Current Version | Previous Version | Text Only | Print | Product List | Glossary Off
Versions: 1 2 3 4 5 6 7 8 9 10 11 12 13 14 15 16 17 18 19 20 21 22 23 24 25 26 27 28 29 30 31 32 33 34 35 36 37 38 39 40 41 42 43 44 45 46 47 48 49 50

000
ASUS45 KPSR 232000
RWRAZ

PRELIMINARY ARIZONA REGIONAL HOURLY WEATHER ROUNDUP
NATIONAL WEATHER SERVICE PHOENIX AZ
100 PM MST THU OCT 23 2014

NOTE: FAIR INDICATES FEW OR NO CLOUDS BELOW 12,000 FEET WITH NO
SIGNIFICANT WEATHER AND/OR OBSTRUCTIONS TO VISIBILITY.

AZZ001>003-036-232100-
NORTHWEST ARIZONA

CITY           SKY/WX    TMP DP  RH WIND       PRES   REMARKS
KINGMAN        SUNNY     81  36  19 SW6       30.12F
$$

AZZ004>008-015-016-018-232100-
NORTH CENTRAL ARIZONA

CITY           SKY/WX    TMP DP  RH WIND       PRES   REMARKS
GRAND CANYON   MOSUNNY   69  31  24 S9        30.31F
PRESCOTT       SUNNY     77  34  21 NE6       30.22F
FLAGSTAFF      SUNNY     69  32  25 VRB6      30.32F
PAYSON         SUNNY     73  37  27 S8        30.25F
PAGE           PTSUNNY   72  30  21 N6        30.19F
$$

AZZ009>014-017-232100-
NORTHEAST ARIZONA

CITY           SKY/WX    TMP DP  RH WIND       PRES   REMARKS
WINSLOW        NOT AVBL
SAINT JOHNS    SUNNY     73  38  27 CALM      30.24F
WINDOW ROCK    SUNNY     71  30  21 SW8       30.30F
$$

AZZ023-232100-
GREATER PHOENIX AREA

CITY           SKY/WX    TMP DP  RH WIND       PRES   REMARKS
PHOENIX        MOSUNNY   90  48  23 CALM      29.98F
GLENDALE       MOSUNNY   88  52  29 E3        30.00F
LUKE AFB       SUNNY     87  51  29 CALM      29.98F
DEER VALLEY    SUNNY     87  47  24 S7        30.00F
SCOTTSDALE     SUNNY     88  48  25 CALM      30.01F
MESA-FALCON    MOSUNNY   88  48  25 VRB6      30.00
CHANDLER       MOSUNNY   88  50  27 CALM      30.00F
$$

AZZ027-028-232100-
SOUTHWEST MARICOPA COUNTY AND PINAL COUNTY

CITY           SKY/WX    TMP DP  RH WIND       PRES   REMARKS
CASA GRANDE    SUNNY     86  50  28 CALM      30.01F
GILA BEND      CLEAR     92  48  22 N7        29.97F
$$

AZZ503-504-507>509-232100-
SOUTHEAST ARIZONA

CITY           SKY/WX    TMP DP  RH WIND       PRES   REMARKS
TUCSON         SUNNY     87  42  20 SE6       30.07F
DAVIS-MONTHAN  SUNNY     86  43  21 N5        30.05F
RYAN FIELD       N/A     90  43  19 E3        30.06F
NOGALES        SUNNY     84  44  24 CALM      30.12F
SIERRA VISTA   MOSUNNY   81  45  28 CALM      30.18F
SAFFORD        SUNNY     81  49  32 CALM      30.11F
$$

AZZ020-021-025-026-031-232100-
SOUTHWEST ARIZONA

CITY           SKY/WX    TMP DP  RH WIND       PRES   REMARKS
YUMA           NOT AVBL
$$

CAZ031-033-041-043-047-048-061-232100-
SOUTHERN CALIFORNIA

CITY           SKY/WX    TMP DP  RH WIND       PRES   REMARKS
DOWNTOWN L.A.  SUNNY     83  55  38 CALM      29.95F
L.A. AIRPORT   MOSUNNY   76  59  55 W9        29.97F
SAN DIEGO      MOSUNNY   76  58  53 NW7       29.97F
BURBANK        SUNNY     85  44  23 VRB3      29.97F
ONTARIO        MOSUNNY   88  34  14 SW5       29.97F
RIVERSIDE      SUNNY     88  32  13 W6        29.97F
PALM SPRINGS   MOSUNNY   93  35  13 SE7       29.96F
EL CENTRO NAS  MOSUNNY   93  40  15 VRB5      29.92F
IMPERIAL       SUNNY     91  44  19 CALM      29.92F
BLYTHE         SUNNY     91  44  19 E5        29.95F
$$

NVZ020-UTZ003-232100-
SOUTHERN NEVADA-UTAH

CITY           SKY/WX    TMP DP  RH WIND       PRES   REMARKS
LAS VEGAS      NOT AVBL
SALT LAKE CITY PTSUNNY   68  37  32 N7        30.08F
$$

NMZ009-TXZ055-232100-
NEW MEXICO-WEST TEXAS

CITY           SKY/WX    TMP DP  RH WIND       PRES   REMARKS
ALBUQUERQUE    SUNNY     72  39  30 VRB3      30.23F
EL PASO        MOSUNNY   77  49  37 VRB3      30.15F
$$


........................KEY........................
SKY/WX - SKY CONDITION/WEATHER
TMP    - TEMPERATURE IN FAHRENHEIT
DP     - DEW POINT IN FAHRENHEIT
RH     - RELATIVE HUMIDITY IN PERCENT
WIND   - DIRECTION AND SPEED IN MILES PER HOUR (MPH)
VRB    - VARIABLE WIND DIRECTION
PRES   - MEAN SEA LEVEL PRESSURE IN INCHES OF MERCURY
         F - FALLING PRESSURE   R - RISING PRESSURE
         S - STEADY PRESSURE
VSB    - VISIBILITY IN MILES
HX     - HEAT INDEX IN FAHRENHEIT
WCI    - WIND CHILL INDEX IN FAHRENHEIT
TC     - TEMPERATURE IN CELSIUS WHICH IS ALSO KNOWN AS
         TEMPERATURE IN CENTIGRADE
AFB    - AIR FORCE BASE
         LUKE AFB IS LUKE AIR FORCE BASE
         DAVIS-MONTHAN IS DAVIS-MONTHAN AIR FORCE BASE
NAS    - NAVAL AIR STATION
         EL CENTRO NAS IS EL CENTRO NAVAL AIR STATION
N/A    - NOT AVAILABLE



USA.gov is the U.S. government's official web portal to all federal, state and local government web resources and services.